Time,TemperatureF,DewpointF,PressureIn,WindDirection,WindDirectionDegrees,WindSpeedMPH,WindSpeedGustMPH,Humidity,HourlyPrecipIn,Conditions,Clouds,dailyrainin,SolarRadiationWatts/m^2,SoftwareType,DateUTC
2014-03-12 00:01:00,62.4,34.3,29.93,North,9,0.0,5.0,35,0.00,,,0.00,0000,Weather View 32 v70,2014-03-12 07:01:00,
2014-03-12 00:06:00,62.5,34.4,29.93,North,9,0.0,5.0,35,0.00,,,0.00,0000,Weather View 32 v70,2014-03-12 07:06:00,
2014-03-12 00:11:00,62.5,32.9,29.93,North,9,0.0,5.0,33,0.00,,,0.00,0000,Weather View 32 v70,2014-03-12 07:11:00,
2014-03-12 00:16:00,62.5,32.2,29.93,North,5,0.0,4.0,32,0.00,,,0.00,0000,Weather View 32 v70,2014-03-12 07:16:00,
2014-03-12 00:21:00,62.6,31.5,29.93,North,360,0.0,4.0,31,0.00,,,0.00,0000,Weather View 32 v70,2014-03-12 07:21:00,
2014-03-12 00:26:00,62.6,32.3,29.93,North,360,0.0,3.0,32,0.00,,,0.00,0000,Weather View 32 v70,2014-03-12 07:26:00,
2014-03-12 00:31:00,62.6,31.5,29.93,East,94,0.0,3.0,31,0.00,,,0.00,0000,Weather View 32 v70,2014-03-12 07:31:00,
2014-03-12 00:36:00,62.4,30.5,29.93,ENE,63,0.0,3.0,30,0.00,,,0.00,0000,Weather View 32 v70,2014-03-12 07:36:00,
2014-03-12 00:41:00,62.4,30.5,29.93,ENE,63,0.0,3.0,30,0.00,,,0.00,0000,Weather View 32 v70,2014-03-12 07:41:00,
2014-03-12 00:46:00,62.3,30.4,29.93,ENE,63,1.0,3.0,30,0.00,,,0.00,0000,Weather View 32 v70,2014-03-12 07:46:00,
2014-03-12 00:51:00,62.4,29.7,29.93,NE,54,0.0,3.0,29,0.00,,,0.00,0000,Weather View 32 v70,2014-03-12 07:51:00,
2014-03-12 00:56:00,62.5,29.7,29.93,NE,53,0.0,2.0,29,0.00,,,0.00,0000,Weather View 32 v70,2014-03-12 07:56:00,
2014-03-12 01:01:00,62.6,29.8,29.93,NE,54,0.0,2.0,29,0.00,,,0.00,0000,Weather View 32 v70,2014-03-12 08:01:00,
2014-03-12 01:06:00,62.7,31.6,29.93,East,98,0.0,5.0,31,0.00,,,0.00,0000,Weather View 32 v70,2014-03-12 08:06:00,
2014-03-12 01:11:00,62.6,29.0,29.93,East,98,0.0,5.0,28,0.00,,,0.00,0000,Weather View 32 v70,2014-03-12 08:11:00,
2014-03-12 01:16:00,62.6,28.1,29.93,NNE,15,0.0,5.0,27,0.00,,,0.00,0000,Weather View 32 v70,2014-03-12 08:16:00,
2014-03-12 01:21:00,62.6,28.1,29.93,NNE,13,0.0,5.0,27,0.00,,,0.00,0000,Weather View 32 v70,2014-03-12 08:21:00,
2014-03-12 01:26:00,62.7,28.2,29.94,North,11,0.0,5.0,27,0.00,,,0.00,0000,Weather View 32 v70,2014-03-12 08:26:00,
2014-03-12 01:31:00,62.8,28.2,29.94,North,11,0.0,5.0,27,0.00,,,0.00,0000,Weather View 32 v70,2014-03-12 08:31:00,
2014-03-12 01:36:00,62.7,28.2,29.93,North,355,0.0,5.0,27,0.00,,,0.00,0000,Weather View 32 v70,2014-03-12 08:36:00,
2014-03-12 01:41:00,62.7,27.2,29.93,NW,315,2.0,5.0,26,0.00,,,0.00,0000,Weather View 32 v70,2014-03-12 08:41:00,
2014-03-12 01:46:00,62.7,27.2,29.93,NW,314,0.0,5.0,26,0.00,,,0.00,0000,Weather View 32 v70,2014-03-12 08:46:00,
2014-03-12 01:51:00,62.7,28.2,29.93,NW,315,0.0,5.0,27,0.00,,,0.00,0000,Weather View 32 v70,2014-03-12 08:51:00,
2014-03-12 01:56:00,62.7,26.3,29.93,NW,317,0.0,5.0,25,0.00,,,0.00,0000,Weather View 32 v70,2014-03-12 08:56:00,
2014-03-12 02:01:00,62.7,27.2,29.93,NW,317,0.0,5.0,26,0.00,,,0.00,0000,Weather View 32 v70,2014-03-12 09:01:00,
2014-03-12 02:06:00,62.6,27.2,29.94,NW,317,0.0,5.0,26,0.00,,,0.00,0000,Weather View 32 v70,2014-03-12 09:06:00,
2014-03-12 02:11:00,62.6,27.2,29.94,NW,317,0.0,5.0,26,0.00,,,0.00,0000,Weather View 32 v70,2014-03-12 09:11:00,
2014-03-12 02:16:00,62.4,27.0,29.93,NW,317,0.0,5.0,26,0.00,,,0.00,0000,Weather View 32 v70,2014-03-12 09:16:00,
2014-03-12 02:21:00,62.3,26.0,29.93,NW,317,0.0,5.0,25,0.00,,,0.00,0000,Weather View 32 v70,2014-03-12 09:21:00,
2014-03-12 02:26:00,62.2,25.9,29.93,NW,317,0.0,5.0,25,0.00,,,0.00,0000,Weather View 32 v70,2014-03-12 09:26:00,
2014-03-12 02:31:00,62.1,25.8,29.93,NW,317,0.0,5.0,25,0.00,,,0.00,0000,Weather View 32 v70,2014-03-12 09:31:00,
2014-03-12 02:36:00,62.0,25.7,29.93,NW,317,0.0,5.0,25,0.00,,,0.00,0000,Weather View 32 v70,2014-03-12 09:36:00,
2014-03-12 02:41:00,61.9,26.6,29.93,NW,317,0.0,5.0,26,0.00,,,0.00,0000,Weather View 32 v70,2014-03-12 09:41:00,
2014-03-12 02:46:00,61.8,26.5,29.93,NW,317,0.0,2.0,26,0.00,,,0.00,0000,Weather View 32 v70,2014-03-12 09:46:00,
2014-03-12 02:51:00,61.7,25.4,29.93,NW,317,0.0,2.0,25,0.00,,,0.00,0000,Weather View 32 v70,2014-03-12 09:51:00,
2014-03-12 02:56:00,61.6,25.4,29.92,NW,317,0.0,1.0,25,0.00,,,0.00,0000,Weather View 32 v70,2014-03-12 09:56:00,
2014-03-12 03:01:00,61.5,26.2,29.92,NW,317,0.0,1.0,26,0.00,,,0.00,0000,Weather View 32 v70,2014-03-12 10:01:00,
2014-03-12 03:06:00,61.4,25.2,29.92,NW,317,0.0,1.0,25,0.00,,,0.00,0000,Weather View 32 v70,2014-03-12 10:06:00,
2014-03-12 03:11:00,61.4,25.2,29.92,NW,317,0.0,1.0,25,0.00,,,0.00,0000,Weather View 32 v70,2014-03-12 10:11:00,
2014-03-12 03:16:00,61.3,25.1,29.92,NW,317,0.0,1.0,25,0.00,,,0.00,0000,Weather View 32 v70,2014-03-12 10:16:00,
2014-03-12 03:21:00,61.2,25.0,29.92,NW,317,0.0,1.0,25,0.00,,,0.00,0000,Weather View 32 v70,2014-03-12 10:21:00,
2014-03-12 03:26:00,61.1,24.9,29.92,NW,317,0.0,1.0,25,0.00,,,0.00,0000,Weather View 32 v70,2014-03-12 10:26:00,
2014-03-12 03:31:00,61.0,24.9,29.92,NW,317,0.0,1.0,25,0.00,,,0.00,0000,Weather View 32 v70,2014-03-12 10:31:00,
2014-03-12 03:36:00,61.0,24.9,29.92,NW,317,0.0,1.0,25,0.00,,,0.00,0000,Weather View 32 v70,2014-03-12 10:36:00,
2014-03-12 03:41:00,61.0,23.9,29.91,NW,317,0.0,1.0,24,0.00,,,0.00,0000,Weather View 32 v70,2014-03-12 10:41:00,
2014-03-12 03:46:00,61.1,24.9,29.91,NW,317,0.0,1.0,25,0.00,,,0.00,0000,Weather View 32 v70,2014-03-12 10:46:00,
2014-03-12 03:51:00,61.0,25.8,29.91,NW,317,0.0,1.0,26,0.00,,,0.00,0000,Weather View 32 v70,2014-03-12 10:51:00,
2014-03-12 03:56:00,60.8,27.4,29.91,NW,317,0.0,1.0,28,0.00,,,0.00,0000,Weather View 32 v70,2014-03-12 10:56:00,
2014-03-12 04:01:00,60.5,25.4,29.91,NW,317,0.0,1.0,26,0.00,,,0.00,0000,Weather View 32 v70,2014-03-12 11:01:00,
2014-03-12 04:06:00,60.2,26.0,29.91,NW,317,0.0,1.0,27,0.00,,,0.00,0000,Weather View 32 v70,2014-03-12 11:06:00,
2014-03-12 04:11:00,59.8,24.8,29.91,NW,317,0.0,1.0,26,0.00,,,0.00,0000,Weather View 32 v70,2014-03-12 11:11:00,
2014-03-12 04:16:00,59.7,24.7,29.91,NW,317,0.0,1.0,26,0.00,,,0.00,0000,Weather View 32 v70,2014-03-12 11:16:00,
2014-03-12 04:21:00,59.5,25.4,29.92,NW,317,0.0,1.0,27,0.00,,,0.00,0000,Weather View 32 v70,2014-03-12 11:21:00,
2014-03-12 04:26:00,59.3,25.3,29.91,NW,317,0.0,1.0,27,0.00,,,0.00,0000,Weather View 32 v70,2014-03-12 11:26:00,
2014-03-12 04:31:00,59.3,24.3,29.91,NW,317,0.0,1.0,26,0.00,,,0.00,0000,Weather View 32 v70,2014-03-12 11:31:00,
2014-03-12 04:36:00,59.2,23.3,29.92,NW,317,1.0,1.0,25,0.00,,,0.00,0000,Weather View 32 v70,2014-03-12 11:36:00,
2014-03-12 04:41:00,59.6,23.7,29.92,NW,317,0.0,1.0,25,0.00,,,0.00,0000,Weather View 32 v70,2014-03-12 11:41:00,
2014-03-12 04:46:00,59.8,24.8,29.92,NW,317,0.0,1.0,26,0.00,,,0.00,0000,Weather View 32 v70,2014-03-12 11:46:00,
2014-03-12 04:51:00,59.9,23.9,29.91,NW,317,0.0,1.0,25,0.00,,,0.00,0000,Weather View 32 v70,2014-03-12 11:51:00,
2014-03-12 04:56:00,59.9,23.9,29.91,NW,317,1.0,1.0,25,0.00,,,0.00,0000,Weather View 32 v70,2014-03-12 11:56:00,
2014-03-12 05:01:00,59.9,23.9,29.91,NW,317,0.0,1.0,25,0.00,,,0.00,0000,Weather View 32 v70,2014-03-12 12:01:00,
2014-03-12 05:06:00,60.0,24.0,29.91,NW,317,0.0,1.0,25,0.00,,,0.00,0000,Weather View 32 v70,2014-03-12 12:06:00,
2014-03-12 05:11:00,60.1,24.1,29.92,NW,317,0.0,1.0,25,0.00,,,0.00,0000,Weather View 32 v70,2014-03-12 12:11:00,
2014-03-12 05:16:00,60.2,23.2,29.92,NW,317,1.0,1.0,24,0.00,,,0.00,0000,Weather View 32 v70,2014-03-12 12:16:00,
2014-03-12 05:21:00,60.3,24.3,29.92,NW,317,0.0,1.0,25,0.00,,,0.00,0000,Weather View 32 v70,2014-03-12 12:21:00,
2014-03-12 05:26:00,60.4,24.3,29.92,NW,317,0.0,1.0,25,0.00,,,0.00,0000,Weather View 32 v70,2014-03-12 12:26:00,
2014-03-12 05:31:00,60.5,23.5,29.92,NW,317,0.0,1.0,24,0.00,,,0.00,0000,Weather View 32 v70,2014-03-12 12:31:00,
2014-03-12 05:36:00,60.6,24.5,29.92,NW,317,0.0,4.0,25,0.00,,,0.00,0000,Weather View 32 v70,2014-03-12 12:36:00,
2014-03-12 05:41:00,60.7,23.6,29.92,NW,317,0.0,4.0,24,0.00,,,0.00,0000,Weather View 32 v70,2014-03-12 12:41:00,
2014-03-12 05:46:00,60.8,23.7,29.92,NW,317,0.0,4.0,24,0.00,,,0.00,0000,Weather View 32 v70,2014-03-12 12:46:00,
2014-03-12 05:51:00,60.7,23.6,29.92,NW,317,0.0,4.0,24,0.00,,,0.00,0000,Weather View 32 v70,2014-03-12 12:51:00,
2014-03-12 05:56:00,60.7,23.6,29.92,NW,317,0.0,4.0,24,0.00,,,0.00,0000,Weather View 32 v70,2014-03-12 12:56:00,
2014-03-12 06:01:00,60.8,24.7,29.92,SE,138,0.0,4.0,25,0.00,,,0.00,0000,Weather View 32 v70,2014-03-12 13:01:00,
2014-03-12 06:06:00,61.1,24.0,29.93,SSE,167,0.0,5.0,24,0.00,,,0.00,0000,Weather View 32 v70,2014-03-12 13:06:00,
2014-03-12 06:11:00,61.1,22.9,29.93,WSW,239,2.0,5.0,23,0.00,,,0.00,0000,Weather View 32 v70,2014-03-12 13:11:00,
2014-03-12 06:16:00,61.5,24.3,29.93,SE,145,0.0,5.0,24,0.00,,,0.00,0000,Weather View 32 v70,2014-03-12 13:16:00,
2014-03-12 06:21:00,61.6,24.4,29.93,WSW,244,0.0,5.0,24,0.00,,,0.00,0000,Weather View 32 v70,2014-03-12 13:21:00,
2014-03-12 06:26:00,61.5,23.3,29.93,WSW,244,0.0,5.0,23,0.00,,,0.00,0000,Weather View 32 v70,2014-03-12 13:26:00,
2014-03-12 06:31:00,61.4,23.2,29.93,SW,236,0.0,5.0,23,0.00,,,0.00,0000,Weather View 32 v70,2014-03-12 13:31:00,
2014-03-12 06:36:00,61.4,24.2,29.93,SW,236,0.0,5.0,24,0.00,,,0.00,0000,Weather View 32 v70,2014-03-12 13:36:00,
2014-03-12 06:41:00,61.5,24.3,29.93,ESE,117,0.0,6.0,24,0.00,,,0.00,0000,Weather View 32 v70,2014-03-12 13:41:00,
2014-03-12 06:46:00,61.5,24.3,29.94,ESE,117,0.0,6.0,24,0.00,,,0.00,0000,Weather View 32 v70,2014-03-12 13:46:00,
2014-03-12 06:51:00,61.5,24.3,29.94,ESE,117,0.0,6.0,24,0.00,,,0.00,0000,Weather View 32 v70,2014-03-12 13:51:00,
2014-03-12 06:56:00,61.5,24.3,29.94,ESE,117,0.0,6.0,24,0.00,,,0.00,0000,Weather View 32 v70,2014-03-12 13:56:00,
2014-03-12 07:01:00,61.3,24.1,29.94,South,181,0.0,6.0,24,0.00,,,0.00,0000,Weather View 32 v70,2014-03-12 14:01:00,
2014-03-12 07:06:00,61.2,24.0,29.94,South,181,0.0,6.0,24,0.00,,,0.00,0000,Weather View 32 v70,2014-03-12 14:06:00,
2014-03-12 07:11:00,61.1,24.0,29.94,SW,236,0.0,6.0,24,0.00,,,0.00,0005,Weather View 32 v70,2014-03-12 14:11:00,
2014-03-12 07:16:00,61.1,24.9,29.95,WSW,245,0.0,6.0,25,0.00,,,0.00,0007,Weather View 32 v70,2014-03-12 14:16:00,
2014-03-12 07:21:00,61.0,24.9,29.95,WSW,245,0.0,6.0,25,0.00,,,0.00,0011,Weather View 32 v70,2014-03-12 14:21:00,
2014-03-12 07:26:00,60.9,24.8,29.95,WSW,245,0.0,6.0,25,0.00,,,0.00,0012,Weather View 32 v70,2014-03-12 14:26:00,
2014-03-12 07:31:00,60.7,24.6,29.95,WSW,245,0.0,6.0,25,0.00,,,0.00,0025,Weather View 32 v70,2014-03-12 14:31:00,
2014-03-12 07:36:00,60.6,24.5,29.95,WSW,245,0.0,6.0,25,0.00,,,0.00,0028,Weather View 32 v70,2014-03-12 14:36:00,
2014-03-12 07:41:00,60.6,24.5,29.96,WSW,245,0.0,2.0,25,0.00,,,0.00,0033,Weather View 32 v70,2014-03-12 14:41:00,
2014-03-12 07:46:00,60.7,25.5,29.95,WSW,245,0.0,2.0,26,0.00,,,0.00,0044,Weather View 32 v70,2014-03-12 14:46:00,
2014-03-12 07:51:00,60.9,25.7,29.96,SE,125,0.0,3.0,26,0.00,,,0.00,0054,Weather View 32 v70,2014-03-12 14:51:00,
2014-03-12 07:56:00,61.4,26.1,29.96,West,277,0.0,5.0,26,0.00,,,0.00,0072,Weather View 32 v70,2014-03-12 14:56:00,
2014-03-12 08:01:00,61.8,26.5,29.96,NW,321,0.0,6.0,26,0.00,,,0.00,0090,Weather View 32 v70,2014-03-12 15:01:00,
2014-03-12 08:06:00,62.2,26.8,29.96,NW,321,0.0,6.0,26,0.00,,,0.00,0111,Weather View 32 v70,2014-03-12 15:06:00,
2014-03-12 08:11:00,62.6,28.1,29.96,NW,321,0.0,6.0,27,0.00,,,0.00,0123,Weather View 32 v70,2014-03-12 15:11:00,
2014-03-12 08:16:00,63.1,29.4,29.96,NW,321,0.0,6.0,28,0.00,,,0.00,0141,Weather View 32 v70,2014-03-12 15:16:00,
2014-03-12 08:21:00,63.5,29.7,29.96,NW,321,0.0,6.0,28,0.00,,,0.00,0169,Weather View 32 v70,2014-03-12 15:21:00,
2014-03-12 08:26:00,64.0,28.4,29.96,NW,319,0.0,6.0,26,0.00,,,0.00,0190,Weather View 32 v70,2014-03-12 15:26:00,
2014-03-12 08:31:00,64.5,29.7,29.96,NW,319,0.0,6.0,27,0.00,,,0.00,0213,Weather View 32 v70,2014-03-12 15:31:00,
2014-03-12 08:36:00,65.0,29.2,29.96,NW,320,0.0,6.0,26,0.00,,,0.00,0232,Weather View 32 v70,2014-03-12 15:36:00,
2014-03-12 08:41:00,65.5,31.5,29.96,NW,320,0.0,6.0,28,0.00,,,0.00,0251,Weather View 32 v70,2014-03-12 15:41:00,
2014-03-12 08:46:00,65.8,28.9,29.97,East,91,0.0,6.0,25,0.00,,,0.00,0274,Weather View 32 v70,2014-03-12 15:46:00,
2014-03-12 08:51:00,66.4,28.4,29.97,ESE,117,0.0,9.0,24,0.00,,,0.00,0287,Weather View 32 v70,2014-03-12 15:51:00,
2014-03-12 08:56:00,66.8,29.8,29.97,WNW,284,0.0,9.0,25,0.00,,,0.00,0204,Weather View 32 v70,2014-03-12 15:56:00,
2014-03-12 09:01:00,67.3,29.2,29.97,WNW,299,2.0,9.0,24,0.00,,,0.00,0315,Weather View 32 v70,2014-03-12 16:01:00,
2014-03-12 09:06:00,67.5,30.4,29.97,WNW,286,0.0,9.0,25,0.00,,,0.00,0343,Weather View 32 v70,2014-03-12 16:06:00,
2014-03-12 09:11:00,67.6,29.4,29.97,West,280,0.0,9.0,24,0.00,,,0.00,0362,Weather View 32 v70,2014-03-12 16:11:00,
2014-03-12 09:16:00,68.2,31.9,29.97,West,281,0.0,9.0,26,0.00,,,0.00,0380,Weather View 32 v70,2014-03-12 16:16:00,
2014-03-12 09:21:00,68.6,30.3,29.97,South,169,0.0,9.0,24,0.00,,,0.00,0399,Weather View 32 v70,2014-03-12 16:21:00,
2014-03-12 09:26:00,68.8,30.5,29.97,NW,310,1.0,9.0,24,0.00,,,0.00,0411,Weather View 32 v70,2014-03-12 16:26:00,
2014-03-12 09:31:00,69.5,31.0,29.97,East,93,3.0,9.0,24,0.00,,,0.00,0431,Weather View 32 v70,2014-03-12 16:31:00,
2014-03-12 09:36:00,70.2,31.6,29.97,East,84,0.0,9.0,24,0.00,,,0.00,0450,Weather View 32 v70,2014-03-12 16:36:00,
2014-03-12 09:41:00,70.6,29.8,29.97,SSE,161,0.0,9.0,22,0.00,,,0.00,0341,Weather View 32 v70,2014-03-12 16:41:00,
2014-03-12 09:46:00,70.8,32.1,29.97,ESE,120,1.0,9.0,24,0.00,,,0.00,0482,Weather View 32 v70,2014-03-12 16:46:00,
2014-03-12 09:51:00,71.2,31.4,29.97,SE,129,0.0,8.0,23,0.00,,,0.00,0499,Weather View 32 v70,2014-03-12 16:51:00,
2014-03-12 09:56:00,71.5,30.6,29.97,ESE,111,5.0,11.0,22,0.00,,,0.00,0517,Weather View 32 v70,2014-03-12 16:56:00,
2014-03-12 10:01:00,71.7,31.8,29.97,East,87,2.0,11.0,23,0.00,,,0.00,0531,Weather View 32 v70,2014-03-12 17:01:00,
2014-03-12 10:06:00,72.0,32.1,29.97,SE,128,2.0,11.0,23,0.00,,,0.00,0545,Weather View 32 v70,2014-03-12 17:06:00,
2014-03-12 10:11:00,71.6,31.7,29.97,East,84,1.0,16.0,23,0.00,,,0.00,0564,Weather View 32 v70,2014-03-12 17:11:00,
2014-03-12 10:16:00,72.0,33.1,29.97,SE,140,8.0,16.0,24,0.00,,,0.00,0580,Weather View 32 v70,2014-03-12 17:16:00,
2014-03-12 10:21:00,72.1,29.9,29.98,SE,144,0.0,16.0,21,0.00,,,0.00,0596,Weather View 32 v70,2014-03-12 17:21:00,
2014-03-12 10:26:00,72.0,31.0,29.97,SSE,161,0.0,16.0,22,0.00,,,0.00,0613,Weather View 32 v70,2014-03-12 17:26:00,
2014-03-12 10:31:00,72.3,31.2,29.97,ESE,106,7.0,16.0,22,0.00,,,0.00,0624,Weather View 32 v70,2014-03-12 17:31:00,
2014-03-12 10:36:00,72.7,31.6,29.97,East,86,2.0,16.0,22,0.00,,,0.00,0638,Weather View 32 v70,2014-03-12 17:36:00,
2014-03-12 10:41:00,73.1,31.9,29.97,ESE,117,7.0,16.0,22,0.00,,,0.00,0650,Weather View 32 v70,2014-03-12 17:41:00,
2014-03-12 10:46:00,73.0,31.8,29.97,ESE,116,3.0,16.0,22,0.00,,,0.00,0663,Weather View 32 v70,2014-03-12 17:46:00,
2014-03-12 10:51:00,73.0,31.8,29.97,ESE,119,6.0,16.0,22,0.00,,,0.00,0677,Weather View 32 v70,2014-03-12 17:51:00,
2014-03-12 10:56:00,73.4,32.1,29.97,ESE,111,6.0,16.0,22,0.00,,,0.00,0691,Weather View 32 v70,2014-03-12 17:56:00,
2014-03-12 11:01:00,73.8,32.5,29.97,ESE,111,4.0,16.0,22,0.00,,,0.00,0705,Weather View 32 v70,2014-03-12 18:01:00,
2014-03-12 11:06:00,73.8,31.3,29.97,ESE,118,6.0,16.0,21,0.00,,,0.00,0715,Weather View 32 v70,2014-03-12 18:06:00,
2014-03-12 11:11:00,74.3,31.7,29.96,East,87,5.0,15.0,21,0.00,,,0.00,0728,Weather View 32 v70,2014-03-12 18:11:00,
2014-03-12 11:16:00,74.8,34.4,29.96,ESE,115,4.0,15.0,23,0.00,,,0.00,0740,Weather View 32 v70,2014-03-12 18:16:00,
2014-03-12 11:21:00,75.1,32.4,29.96,East,90,2.0,15.0,21,0.00,,,0.00,0752,Weather View 32 v70,2014-03-12 18:21:00,
2014-03-12 11:26:00,74.9,32.2,29.96,ESE,120,3.0,15.0,21,0.00,,,0.00,0758,Weather View 32 v70,2014-03-12 18:26:00,
2014-03-12 11:31:00,74.9,32.2,29.96,ESE,106,1.0,18.0,21,0.00,,,0.00,0770,Weather View 32 v70,2014-03-12 18:31:00,
2014-03-12 11:36:00,74.7,30.9,29.96,East,95,11.0,18.0,20,0.00,,,0.00,0779,Weather View 32 v70,2014-03-12 18:36:00,
2014-03-12 11:41:00,74.5,33.1,29.96,ESE,109,8.0,18.0,22,0.00,,,0.00,0788,Weather View 32 v70,2014-03-12 18:41:00,
2014-03-12 11:46:00,74.5,33.1,29.96,East,82,4.0,18.0,22,0.00,,,0.00,0793,Weather View 32 v70,2014-03-12 18:46:00,
2014-03-12 11:51:00,74.8,32.2,29.96,East,101,11.0,18.0,21,0.00,,,0.00,0803,Weather View 32 v70,2014-03-12 18:51:00,
2014-03-12 11:56:00,75.1,32.4,29.96,East,98,0.0,18.0,21,0.00,,,0.00,0810,Weather View 32 v70,2014-03-12 18:56:00,
2014-03-12 12:01:00,75.6,32.8,29.96,East,88,0.0,18.0,21,0.00,,,0.00,0817,Weather View 32 v70,2014-03-12 19:01:00,
2014-03-12 12:06:00,76.2,34.5,29.95,ESE,123,0.0,18.0,22,0.00,,,0.00,0823,Weather View 32 v70,2014-03-12 19:06:00,
2014-03-12 12:11:00,75.8,31.8,29.95,SSE,167,0.0,18.0,20,0.00,,,0.00,0823,Weather View 32 v70,2014-03-12 19:11:00,
2014-03-12 12:16:00,75.2,32.5,29.96,SE,125,7.0,18.0,21,0.00,,,0.00,0828,Weather View 32 v70,2014-03-12 19:16:00,
2014-03-12 12:21:00,74.2,31.7,29.96,SSE,158,8.0,18.0,21,0.00,,,0.00,0838,Weather View 32 v70,2014-03-12 19:21:00,
2014-03-12 12:26:00,74.1,31.5,29.95,South,171,4.0,18.0,21,0.00,,,0.00,0844,Weather View 32 v70,2014-03-12 19:26:00,
2014-03-12 12:31:00,73.9,31.4,29.95,ESE,123,4.0,18.0,21,0.00,,,0.00,0846,Weather View 32 v70,2014-03-12 19:31:00,
2014-03-12 12:36:00,73.5,29.9,29.95,South,170,2.0,16.0,20,0.00,,,0.00,0853,Weather View 32 v70,2014-03-12 19:36:00,
2014-03-12 12:41:00,73.7,32.4,29.95,SE,142,9.0,15.0,22,0.00,,,0.00,0858,Weather View 32 v70,2014-03-12 19:41:00,
2014-03-12 12:46:00,74.0,31.5,29.95,ESE,107,4.0,14.0,21,0.00,,,0.00,0846,Weather View 32 v70,2014-03-12 19:46:00,
2014-03-12 12:51:00,74.3,31.7,29.94,SSE,153,8.0,14.0,21,0.00,,,0.00,0858,Weather View 32 v70,2014-03-12 19:51:00,
2014-03-12 12:56:00,74.1,31.6,29.95,ESE,108,3.0,15.0,21,0.00,,,0.00,0531,Weather View 32 v70,2014-03-12 19:56:00,
2014-03-12 13:01:00,74.3,32.9,29.94,SSE,155,2.0,15.0,22,0.00,,,0.00,0747,Weather View 32 v70,2014-03-12 20:01:00,
2014-03-12 13:06:00,74.4,31.8,29.94,SSE,155,4.0,15.0,21,0.00,,,0.00,0536,Weather View 32 v70,2014-03-12 20:06:00,
2014-03-12 13:11:00,74.3,32.9,29.94,SE,136,9.0,15.0,22,0.00,,,0.00,0536,Weather View 32 v70,2014-03-12 20:11:00,
2014-03-12 13:16:00,74.1,32.7,29.93,SW,236,3.0,16.0,22,0.00,,,0.00,0861,Weather View 32 v70,2014-03-12 20:16:00,
2014-03-12 13:21:00,74.3,32.9,29.93,SE,128,2.0,16.0,22,0.00,,,0.00,0450,Weather View 32 v70,2014-03-12 20:21:00,
2014-03-12 13:26:00,74.8,33.3,29.93,SE,137,5.0,16.0,22,0.00,,,0.00,0081,Weather View 32 v70,2014-03-12 20:26:00,
2014-03-12 13:31:00,74.6,30.8,29.93,WSW,257,3.0,16.0,20,0.00,,,0.00,0151,Weather View 32 v70,2014-03-12 20:31:00,
2014-03-12 13:36:00,74.6,32.0,29.93,SE,146,6.0,16.0,21,0.00,,,0.00,0726,Weather View 32 v70,2014-03-12 20:36:00,
2014-03-12 13:41:00,74.6,32.0,29.93,East,101,2.0,16.0,21,0.00,,,0.00,0190,Weather View 32 v70,2014-03-12 20:41:00,
2014-03-12 13:46:00,74.6,32.0,29.92,SE,137,2.0,16.0,21,0.00,,,0.00,0364,Weather View 32 v70,2014-03-12 20:46:00,
2014-03-12 13:51:00,75.1,33.6,29.92,East,89,8.0,16.0,22,0.00,,,0.00,0844,Weather View 32 v70,2014-03-12 20:51:00,
2014-03-12 13:56:00,74.8,30.9,29.92,East,97,8.0,20.0,20,0.00,,,0.00,0844,Weather View 32 v70,2014-03-12 20:56:00,
2014-03-12 14:01:00,74.5,31.9,29.91,SSW,207,0.0,20.0,21,0.00,,,0.00,0469,Weather View 32 v70,2014-03-12 21:01:00,
2014-03-12 14:06:00,74.9,32.2,29.91,SE,126,8.0,20.0,21,0.00,,,0.00,0772,Weather View 32 v70,2014-03-12 21:06:00,
2014-03-12 14:11:00,74.7,33.2,29.91,SSE,150,0.0,20.0,22,0.00,,,0.00,0828,Weather View 32 v70,2014-03-12 21:11:00,
2014-03-12 14:16:00,74.8,32.2,29.91,SE,126,2.0,20.0,21,0.00,,,0.00,0826,Weather View 32 v70,2014-03-12 21:16:00,
2014-03-12 14:21:00,74.9,32.2,29.91,SSE,153,4.0,20.0,21,0.00,,,0.00,0817,Weather View 32 v70,2014-03-12 21:21:00,
2014-03-12 14:26:00,75.1,32.4,29.91,South,180,1.0,20.0,21,0.00,,,0.00,0719,Weather View 32 v70,2014-03-12 21:26:00,
2014-03-12 14:31:00,74.5,31.9,29.91,ESE,113,4.0,20.0,21,0.00,,,0.00,0805,Weather View 32 v70,2014-03-12 21:31:00,
2014-03-12 14:36:00,74.3,31.7,29.91,SE,145,7.0,20.0,21,0.00,,,0.00,0793,Weather View 32 v70,2014-03-12 21:36:00,
2014-03-12 14:41:00,74.0,31.5,29.91,South,191,6.0,20.0,21,0.00,,,0.00,0788,Weather View 32 v70,2014-03-12 21:41:00,
2014-03-12 14:46:00,74.0,31.5,29.91,ESE,107,9.0,20.0,21,0.00,,,0.00,0779,Weather View 32 v70,2014-03-12 21:46:00,
2014-03-12 14:51:00,74.2,32.8,29.90,East,87,4.0,20.0,22,0.00,,,0.00,0772,Weather View 32 v70,2014-03-12 21:51:00,
2014-03-12 14:56:00,74.4,33.0,29.91,ESE,117,6.0,18.0,22,0.00,,,0.00,0763,Weather View 32 v70,2014-03-12 21:56:00,
2014-03-12 15:01:00,74.6,32.0,29.90,SSE,148,4.0,18.0,21,0.00,,,0.00,0752,Weather View 32 v70,2014-03-12 22:01:00,
2014-03-12 15:06:00,74.6,32.0,29.90,SSE,160,8.0,21.0,21,0.00,,,0.00,0677,Weather View 32 v70,2014-03-12 22:06:00,
2014-03-12 15:11:00,74.5,33.1,29.90,SE,137,8.0,21.0,22,0.00,,,0.00,0471,Weather View 32 v70,2014-03-12 22:11:00,
2014-03-12 15:16:00,74.5,31.9,29.90,ESE,104,16.0,21.0,21,0.00,,,0.00,0722,Weather View 32 v70,2014-03-12 22:16:00,
2014-03-12 15:21:00,74.2,31.7,29.90,East,87,12.0,21.0,21,0.00,,,0.00,0715,Weather View 32 v70,2014-03-12 22:21:00,
2014-03-12 15:26:00,74.4,31.8,29.90,ESE,110,10.0,21.0,21,0.00,,,0.00,0656,Weather View 32 v70,2014-03-12 22:26:00,
2014-03-12 15:31:00,74.0,31.5,29.90,East,94,11.0,21.0,21,0.00,,,0.00,0675,Weather View 32 v70,2014-03-12 22:31:00,
2014-03-12 15:36:00,73.8,32.5,29.90,ESE,111,7.0,21.0,22,0.00,,,0.00,0373,Weather View 32 v70,2014-03-12 22:36:00,
2014-03-12 15:41:00,74.0,31.5,29.90,ESE,106,11.0,21.0,21,0.00,,,0.00,0649,Weather View 32 v70,2014-03-12 22:41:00,
2014-03-12 15:46:00,73.8,31.3,29.90,SSE,153,7.0,21.0,21,0.00,,,0.00,0656,Weather View 32 v70,2014-03-12 22:46:00,
2014-03-12 15:51:00,73.8,31.3,29.90,South,188,7.0,21.0,21,0.00,,,0.00,0192,Weather View 32 v70,2014-03-12 22:51:00,
2014-03-12 15:56:00,73.8,31.3,29.90,South,190,7.0,21.0,21,0.00,,,0.00,0483,Weather View 32 v70,2014-03-12 22:56:00,
2014-03-12 16:01:00,73.9,32.6,29.90,North,0,0.0,21.0,22,0.00,,,0.00,0527,Weather View 32 v70,2014-03-12 23:01:00,
2014-03-12 16:06:00,74.0,31.5,29.90,SSE,153,8.0,19.0,21,0.00,,,0.00,0584,Weather View 32 v70,2014-03-12 23:06:00,
2014-03-12 16:11:00,73.8,31.3,29.89,SW,234,4.0,19.0,21,0.00,,,0.00,0570,Weather View 32 v70,2014-03-12 23:11:00,
2014-03-12 16:16:00,74.0,32.6,29.89,West,268,0.0,18.0,22,0.00,,,0.00,0557,Weather View 32 v70,2014-03-12 23:16:00,
2014-03-12 16:21:00,74.3,32.9,29.89,SSE,167,13.0,18.0,22,0.00,,,0.00,0540,Weather View 32 v70,2014-03-12 23:21:00,
2014-03-12 16:26:00,73.9,31.4,29.90,SSE,160,2.0,18.0,21,0.00,,,0.00,0524,Weather View 32 v70,2014-03-12 23:26:00,
2014-03-12 16:31:00,73.5,31.1,29.89,SE,141,9.0,18.0,21,0.00,,,0.00,0510,Weather View 32 v70,2014-03-12 23:31:00,
2014-03-12 16:36:00,73.2,32.0,29.88,ESE,105,11.0,18.0,22,0.00,,,0.00,0459,Weather View 32 v70,2014-03-12 23:36:00,
2014-03-12 16:41:00,73.1,30.7,29.88,ESE,103,8.0,18.0,21,0.00,,,0.00,0223,Weather View 32 v70,2014-03-12 23:41:00,
2014-03-12 16:46:00,73.0,31.8,29.88,SE,137,8.0,18.0,22,0.00,,,0.00,0455,Weather View 32 v70,2014-03-12 23:46:00,
2014-03-12 16:51:00,72.9,31.7,29.88,SE,132,0.0,18.0,22,0.00,,,0.00,0446,Weather View 32 v70,2014-03-12 23:51:00,
2014-03-12 16:56:00,73.1,31.9,29.88,East,101,7.0,18.0,22,0.00,,,0.00,0424,Weather View 32 v70,2014-03-12 23:56:00,
2014-03-12 17:01:00,73.1,31.9,29.88,SE,125,1.0,18.0,22,0.00,,,0.00,0404,Weather View 32 v70,2014-03-13 00:01:00,
2014-03-12 17:06:00,72.9,31.7,29.87,SSE,154,10.0,18.0,22,0.00,,,0.00,0387,Weather View 32 v70,2014-03-13 00:06:00,
2014-03-12 17:11:00,72.8,32.8,29.87,SE,126,4.0,18.0,23,0.00,,,0.00,0367,Weather View 32 v70,2014-03-13 00:11:00,
2014-03-12 17:16:00,72.7,31.6,29.87,SSE,151,4.0,18.0,22,0.00,,,0.00,0348,Weather View 32 v70,2014-03-13 00:16:00,
2014-03-12 17:21:00,72.7,31.6,29.87,ESE,123,5.0,18.0,22,0.00,,,0.00,0332,Weather View 32 v70,2014-03-13 00:21:00,
2014-03-12 17:26:00,72.6,31.5,29.87,SE,127,1.0,16.0,22,0.00,,,0.00,0139,Weather View 32 v70,2014-03-13 00:26:00,
2014-03-12 17:31:00,72.4,31.3,29.87,South,175,1.0,16.0,22,0.00,,,0.00,0047,Weather View 32 v70,2014-03-13 00:31:00,
2014-03-12 17:36:00,72.4,31.3,29.87,SE,146,6.0,16.0,22,0.00,,,0.00,0081,Weather View 32 v70,2014-03-13 00:36:00,
2014-03-12 17:41:00,72.3,31.2,29.87,SSE,155,2.0,16.0,22,0.00,,,0.00,0172,Weather View 32 v70,2014-03-13 00:41:00,
2014-03-12 17:46:00,72.1,31.1,29.87,SSW,205,4.0,15.0,22,0.00,,,0.00,0067,Weather View 32 v70,2014-03-13 00:46:00,
2014-03-12 17:51:00,71.9,30.9,29.87,South,171,7.0,15.0,22,0.00,,,0.00,0037,Weather View 32 v70,2014-03-13 00:51:00,
2014-03-12 17:56:00,71.8,30.8,29.87,SSE,154,5.0,15.0,22,0.00,,,0.00,0035,Weather View 32 v70,2014-03-13 00:56:00,
2014-03-12 18:01:00,71.6,30.6,29.87,SE,142,1.0,15.0,22,0.00,,,0.00,0039,Weather View 32 v70,2014-03-13 01:01:00,
2014-03-12 18:06:00,71.6,30.6,29.87,ESE,105,7.0,13.0,22,0.00,,,0.00,0030,Weather View 32 v70,2014-03-13 01:06:00,
2014-03-12 18:11:00,71.5,30.6,29.87,ESE,110,4.0,13.0,22,0.00,,,0.00,0026,Weather View 32 v70,2014-03-13 01:11:00,
2014-03-12 18:16:00,71.4,30.5,29.88,SE,146,7.0,13.0,22,0.00,,,0.00,0025,Weather View 32 v70,2014-03-13 01:16:00,
2014-03-12 18:21:00,71.3,30.4,29.88,East,92,1.0,13.0,22,0.00,,,0.00,0023,Weather View 32 v70,2014-03-13 01:21:00,
2014-03-12 18:26:00,71.1,30.2,29.88,East,101,3.0,13.0,22,0.00,,,0.00,0021,Weather View 32 v70,2014-03-13 01:26:00,
2014-03-12 18:31:00,71.0,31.2,29.88,ESE,117,4.0,13.0,23,0.00,,,0.00,0019,Weather View 32 v70,2014-03-13 01:31:00,
2014-03-12 18:36:00,70.8,30.0,29.88,SSE,156,6.0,13.0,22,0.00,,,0.00,0018,Weather View 32 v70,2014-03-13 01:36:00,
2014-03-12 18:41:00,70.6,30.9,29.88,ESE,123,0.0,13.0,23,0.00,,,0.00,0014,Weather View 32 v70,2014-03-13 01:41:00,
2014-03-12 18:46:00,70.4,30.7,29.88,ESE,105,0.0,13.0,23,0.00,,,0.00,0012,Weather View 32 v70,2014-03-13 01:46:00,
2014-03-12 18:51:00,70.3,30.7,29.88,ESE,115,2.0,11.0,23,0.00,,,0.00,0009,Weather View 32 v70,2014-03-13 01:51:00,
2014-03-12 18:56:00,70.1,30.5,29.88,ESE,106,0.0,11.0,23,0.00,,,0.00,0007,Weather View 32 v70,2014-03-13 01:56:00,
2014-03-12 19:01:00,70.0,30.4,29.88,ESE,106,0.0,11.0,23,0.00,,,0.00,0005,Weather View 32 v70,2014-03-13 02:01:00,
2014-03-12 19:06:00,69.8,30.2,29.88,ESE,108,0.0,10.0,23,0.00,,,0.00,0000,Weather View 32 v70,2014-03-13 02:06:00,
2014-03-12 19:11:00,69.6,31.1,29.88,ESE,107,0.0,10.0,24,0.00,,,0.00,0000,Weather View 32 v70,2014-03-13 02:11:00,
2014-03-12 19:16:00,69.4,29.9,29.88,East,94,0.0,10.0,23,0.00,,,0.00,0000,Weather View 32 v70,2014-03-13 02:16:00,
2014-03-12 19:21:00,69.1,29.7,29.88,East,101,0.0,10.0,23,0.00,,,0.00,0000,Weather View 32 v70,2014-03-13 02:21:00,
2014-03-12 19:26:00,68.9,29.5,29.88,ESE,123,0.0,8.0,23,0.00,,,0.00,0000,Weather View 32 v70,2014-03-13 02:26:00,
2014-03-12 19:31:00,68.6,30.3,29.88,East,92,0.0,10.0,24,0.00,,,0.00,0000,Weather View 32 v70,2014-03-13 02:31:00,
2014-03-12 19:36:00,68.4,29.1,29.88,SSE,157,3.0,10.0,23,0.00,,,0.00,0000,Weather View 32 v70,2014-03-13 02:36:00,
2014-03-12 19:41:00,68.3,29.0,29.88,ESE,121,0.0,10.0,23,0.00,,,0.00,0000,Weather View 32 v70,2014-03-13 02:41:00,
2014-03-12 19:46:00,68.2,28.9,29.88,ESE,113,0.0,10.0,23,0.00,,,0.00,0000,Weather View 32 v70,2014-03-13 02:46:00,
2014-03-12 19:51:00,68.1,29.9,29.88,ESE,113,0.0,10.0,24,0.00,,,0.00,0000,Weather View 32 v70,2014-03-13 02:51:00,
2014-03-12 19:56:00,68.0,28.7,29.89,ESE,113,0.0,10.0,23,0.00,,,0.00,0000,Weather View 32 v70,2014-03-13 02:56:00,
2014-03-12 20:01:00,67.7,29.5,29.89,SSE,148,0.0,10.0,24,0.00,,,0.00,0000,Weather View 32 v70,2014-03-13 03:01:00,
2014-03-12 20:06:00,67.6,29.4,29.89,SSE,148,0.0,10.0,24,0.00,,,0.00,0000,Weather View 32 v70,2014-03-13 03:06:00,
2014-03-12 20:11:00,67.4,30.3,29.89,WSW,244,0.0,10.0,25,0.00,,,0.00,0000,Weather View 32 v70,2014-03-13 03:11:00,
2014-03-12 20:16:00,67.1,29.0,29.89,SW,223,0.0,10.0,24,0.00,,,0.00,0000,Weather View 32 v70,2014-03-13 03:16:00,
2014-03-12 20:21:00,66.8,28.8,29.90,SSW,199,0.0,10.0,24,0.00,,,0.00,0000,Weather View 32 v70,2014-03-13 03:21:00,
2014-03-12 20:26:00,66.5,28.5,29.90,SSW,199,0.0,10.0,24,0.00,,,0.00,0000,Weather View 32 v70,2014-03-13 03:26:00,
2014-03-12 20:31:00,66.0,31.0,29.90,South,190,0.0,10.0,27,0.00,,,0.00,0000,Weather View 32 v70,2014-03-13 03:31:00,
2014-03-12 20:36:00,65.6,33.3,29.90,WSW,250,0.0,10.0,30,0.00,,,0.00,0000,Weather View 32 v70,2014-03-13 03:36:00,
2014-03-12 20:41:00,64.8,36.4,29.90,NNW,333,0.0,6.0,35,0.00,,,0.00,0000,Weather View 32 v70,2014-03-13 03:41:00,
2014-03-12 20:46:00,63.6,37.5,29.90,NW,312,1.0,5.0,38,0.00,,,0.00,0000,Weather View 32 v70,2014-03-13 03:46:00,
2014-03-12 20:51:00,62.7,37.3,29.91,NW,321,0.0,5.0,39,0.00,,,0.00,0000,Weather View 32 v70,2014-03-13 03:51:00,
2014-03-12 20:56:00,62.1,37.4,29.90,NW,315,3.0,5.0,40,0.00,,,0.00,0000,Weather View 32 v70,2014-03-13 03:56:00,
2014-03-12 21:01:00,61.6,37.6,29.91,NW,323,0.0,5.0,41,0.00,,,0.00,0000,Weather View 32 v70,2014-03-13 04:01:00,
2014-03-12 21:06:00,61.0,37.1,29.90,WNW,302,1.0,6.0,41,0.00,,,0.00,0000,Weather View 32 v70,2014-03-13 04:06:00,
2014-03-12 21:11:00,60.5,37.8,29.91,NW,304,1.0,6.0,43,0.00,,,0.00,0000,Weather View 32 v70,2014-03-13 04:11:00,
2014-03-12 21:16:00,60.1,38.6,29.91,NW,310,0.0,6.0,45,0.00,,,0.00,0000,Weather View 32 v70,2014-03-13 04:16:00,
2014-03-12 21:21:00,59.8,39.5,29.91,NW,321,0.0,6.0,47,0.00,,,0.00,0000,Weather View 32 v70,2014-03-13 04:21:00,
2014-03-12 21:26:00,59.3,39.6,29.91,NW,313,1.0,6.0,48,0.00,,,0.00,0000,Weather View 32 v70,2014-03-13 04:26:00,
2014-03-12 21:31:00,59.0,40.3,29.91,WNW,302,0.0,6.0,50,0.00,,,0.00,0000,Weather View 32 v70,2014-03-13 04:31:00,
2014-03-12 21:36:00,58.9,40.8,29.91,NW,304,0.0,6.0,51,0.00,,,0.00,0000,Weather View 32 v70,2014-03-13 04:36:00,
2014-03-12 21:41:00,58.4,41.8,29.91,NW,313,0.0,6.0,54,0.00,,,0.00,0000,Weather View 32 v70,2014-03-13 04:41:00,
2014-03-12 21:46:00,58.0,43.3,29.91,NNW,331,0.0,6.0,58,0.00,,,0.00,0000,Weather View 32 v70,2014-03-13 04:46:00,
2014-03-12 21:51:00,57.7,43.4,29.91,NNW,327,0.0,6.0,59,0.00,,,0.00,0000,Weather View 32 v70,2014-03-13 04:51:00,
2014-03-12 21:56:00,57.4,43.6,29.91,NW,325,0.0,6.0,60,0.00,,,0.00,0000,Weather View 32 v70,2014-03-13 04:56:00,
2014-03-12 22:01:00,57.2,44.3,29.92,NW,323,1.0,6.0,62,0.00,,,0.00,0000,Weather View 32 v70,2014-03-13 05:01:00,
2014-03-12 22:06:00,56.8,44.3,29.92,NW,323,0.0,5.0,63,0.00,,,0.00,0000,Weather View 32 v70,2014-03-13 05:06:00,
2014-03-12 22:11:00,56.6,45.3,29.91,NW,319,0.0,5.0,66,0.00,,,0.00,0000,Weather View 32 v70,2014-03-13 05:11:00,
2014-03-12 22:16:00,56.3,45.9,29.92,NW,319,0.0,4.0,68,0.00,,,0.00,0000,Weather View 32 v70,2014-03-13 05:16:00,
2014-03-12 22:21:00,56.0,46.0,29.92,WNW,301,0.0,4.0,69,0.00,,,0.00,0000,Weather View 32 v70,2014-03-13 05:21:00,
2014-03-12 22:26:00,55.8,46.1,29.92,WNW,302,0.0,4.0,70,0.00,,,0.00,0000,Weather View 32 v70,2014-03-13 05:26:00,
2014-03-12 22:31:00,55.5,46.6,29.92,WNW,302,0.0,2.0,72,0.00,,,0.00,0000,Weather View 32 v70,2014-03-13 05:31:00,
2014-03-12 22:36:00,55.2,47.0,29.92,NW,306,0.0,2.0,74,0.00,,,0.00,0000,Weather View 32 v70,2014-03-13 05:36:00,
2014-03-12 22:41:00,55.0,47.2,29.92,NW,318,0.0,2.0,75,0.00,,,0.00,0000,Weather View 32 v70,2014-03-13 05:41:00,
2014-03-12 22:46:00,54.9,47.1,29.93,NNW,327,0.0,2.0,75,0.00,,,0.00,0000,Weather View 32 v70,2014-03-13 05:46:00,
2014-03-12 22:51:00,54.8,47.4,29.93,NNW,329,0.0,2.0,76,0.00,,,0.00,0000,Weather View 32 v70,2014-03-13 05:51:00,
2014-03-12 22:56:00,54.6,47.5,29.93,NW,315,2.0,2.0,77,0.00,,,0.00,0000,Weather View 32 v70,2014-03-13 05:56:00,
2014-03-12 23:01:00,54.5,47.8,29.93,NW,314,0.0,5.0,78,0.00,,,0.00,0000,Weather View 32 v70,2014-03-13 06:01:00,
2014-03-12 23:06:00,54.4,48.0,29.93,NW,314,1.0,5.0,79,0.00,,,0.00,0000,Weather View 32 v70,2014-03-13 06:06:00,
2014-03-12 23:11:00,54.3,48.2,29.94,NW,315,0.0,5.0,80,0.00,,,0.00,0000,Weather View 32 v70,2014-03-13 06:11:00,
2014-03-12 23:16:00,54.2,48.2,29.94,NW,321,0.0,5.0,80,0.00,,,0.00,0000,Weather View 32 v70,2014-03-13 06:16:00,
2014-03-12 23:21:00,54.1,48.7,29.94,NW,325,0.0,5.0,82,0.00,,,0.00,0000,Weather View 32 v70,2014-03-13 06:21:00,
2014-03-12 23:26:00,54.1,48.7,29.94,NNW,331,0.0,5.0,82,0.00,,,0.00,0000,Weather View 32 v70,2014-03-13 06:26:00,